Welcome to the New NWS' Forecast!
Most changes are behind the scenes, but click here for differences you might notice.
Latest weather observations around

Alabaster, Shelby County Airport (KEET)

Using English Units (Switch to International System of Units)
Date/ Time (CDT) Wind (mph) Vis. (mi) Weather Sky Cond. Temp (°F) Rel. Humidity Wind Chill (°F) Heat Index (°F) Pressure Precip. (in)
Air Dwpt 6 hour Altimeter (inHg) Sea level (inHg) 1 hr 3 hr 6 hr
Max Min
Oct 21 13:53 6 10 Clear CLR 60 29     31%     30.25 30.24      
Oct 21 12:53 NE 8 10 Clear CLR 58 28     32%     30.28 30.27      
Oct 21 11:53 NE 8 10 Clear CLR 55 28     35%     30.31 30.3      
Oct 21 10:53 NNE 6 10 Clear CLR 53 28     38%     30.32 30.31      
Oct 21 09:53 6 10 Clear CLR 50 29     44%     30.31 30.3      
Oct 21 08:53 6 10 Clear CLR 47 30     52% 44   30.29 30.29      
Oct 21 07:53 7 10 Clear CLR 45 30     56% 41   30.27 30.27      
Oct 21 06:53 N 10 10 Clear CLR 45 31     58% 40   30.24 30.23      
Oct 21 05:53 N 11 10 Clear CLR 47 32     56% 42   30.22 30.21      
Oct 21 04:53 N 9 10 Clear CLR 49 34     56% 45   30.19 30.18      
Oct 21 03:53 N 8 10 Clear CLR 52 39     61%     30.17 30.16      
Oct 21 02:53 N 9 10 Clear CLR 53 42     66%     30.16 30.15      
Oct 21 01:53 3 10 Clear CLR 52 49     89%     30.15 30.14      
Oct 21 00:53 Calm 10 Clear CLR 53 50     89%     30.15 30.14      
Oct 20 23:53 N 6 10 Clear CLR 55 52     89%     30.16 30.15      
Oct 20 22:53 NNW 7 10 Clear CLR 57 54     89%     30.16 30.16      
Oct 20 21:53 NW 6 10 Clear CLR 57 55     93%     30.16 30.15      
Oct 20 20:53 NW 6 10 Clear CLR 57 55     93%     30.14 30.12      
Oct 20 19:53 WNW 5 10 Clear CLR 57 56     96%     30.12 30.11      
Oct 20 18:53 WNW 3 10 Clear CLR 59 56     90%     30.1 30.08     0
Oct 20 18:00 NNW 7 10 Partly Cloudy SCT019 62 56     80%     30.08        
Oct 20 17:53 N 6 10 Mostly Cloudy BKN019 62 56     80%     30.07 30.06      
Oct 20 16:53 NNW 8 6 Haze OVC019 63 56     78%     30.06 30.04      
Oct 20 15:53 NW 7 10 Cloudy BKN017 OVC022 65 59     81%     30.05 30.03   0  
Oct 20 15:31 NW 8 10 Cloudy SCT015 OVC023 66 59     78%     30.04        
Oct 20 15:20 NNW 8 10 Cloudy BKN014 OVC021 65 60     84%     30.04        
Oct 20 14:53 NW 9 10 Cloudy BKN016 OVC025 65 60     84%     30.05 30.03      
Oct 20 13:53 NNW 5 10 Cloudy SCT016 BKN026 OVC100 65 61     87%     30.04 30.02 0    
Oct 20 13:29 NW 6 10 Cloudy SCT017 BKN025 OVC085 65 60     84%     30.05   0    
Oct 20 12:53 WNW 6 4 Light Rain FEW035 BKN090 OVC110 65 60     84%     30.07 30.06 0   0
Oct 20 11:53 NW 8 10 Cloudy FEW014 OVC030 65 60     84%     30.1 30.08      
Oct 20 10:53 Calm 10 Cloudy OVC024 64 61     90%     30.1 30.08 0    
Oct 20 09:53 NNW 6 8 Light Rain OVC028 65 58     78%     30.1 30.09 0 0  
Oct 20 08:53 NNW 9 10 Cloudy BKN028 BKN034 OVC085 66 59     78%     30.08 30.06      
Oct 20 08:31 NNW 7 10 Mostly Cloudy BKN028 67 60     79%     30.07        
Oct 20 07:53 NW 8 8 Mostly Cloudy FEW019 SCT027 BKN032 67 66     97%     30.05 30.04 0    
Oct 20 07:34 NW 6 6 Fog/Mist FEW006 BKN019 OVC029 67 67     100%     30.04   0    
Oct 20 06:56 WNW 7 3 Fog/Mist OVC002 68 68     100%     30.04        
Oct 20 06:53 WNW 6 1.75 Fog/Mist OVC002 68 68     100%     30.04 30.03      
Oct 20 06:16 Calm 0.5 Fog VV002 68 67     96%     30.03        
Oct 20 06:04 SW 3 1.75 Fog/Mist OVC003 68 67     96%     30.03        
Oct 20 05:53 Calm 5 Fog/Mist BKN003 BKN048 68 67     96%     30.03 30.01      
Oct 20 05:48 SSW 5 5 Fog/Mist BKN003 BKN049 68 66     94%     30.03        
Oct 20 05:41 SSW 3 6 Fog/Mist SCT005 BKN049 68 67     96%     30.03        
Oct 20 04:53 S 3 6 Fog/Mist SCT036 SCT046 BKN110 68 66     93%     30.03 30.01      
Oct 20 03:53 Calm 6 Fog/Mist BKN036 BKN046 OVC110 67 66     97%     30.04 30.02      
Oct 20 02:53 Calm 6 Fog/Mist SCT036 BKN100 66 65     96%     30.05 30.03      
Oct 20 01:53 Calm 7 Clear CLR 67 65     93%     30.08 30.06      
Oct 20 00:53 Calm 6 Fog/Mist FEW070 SCT090 67 65     93%     30.1 30.08      
Oct 19 23:53 Calm 7 Partly Cloudy FEW080 SCT100 68 65     90%     30.12 30.1      
Oct 19 22:53 Calm 8 Cloudy OVC070 68 65     90%     30.13 30.11      
Oct 19 21:53 Calm 7 Clear CLR 68 65     90%     30.13 30.12      
Oct 19 20:53 Calm 9 Clear CLR 69 66     90%     30.13 30.12      
Oct 19 19:53 Calm 10 Clear CLR 70 65     84%     30.14 30.12      
Oct 19 18:53 S 3 10 Mostly Clear FEW004 73 65     76%   74 30.13 30.12      
Oct 19 18:38 Calm 10 Mostly Clear FEW004 73 65     76%   74 30.13        
Oct 19 17:53 S 3 10 Clear CLR 74 65     74%   74 30.13 30.11      
Oct 19 16:53 S 7 6 Haze FEW033 76 65     69%   76 30.13 30.12      
Oct 19 15:53 S 7 10 Clear CLR 78 64     62%   79 30.14 30.12      
Oct 19 14:53 SSW 8 10 Mostly Clear FEW034 78 63     60%   78 30.15 30.14      
Oct 19 13:53 6 10 Mostly Clear FEW031 78 64     62%   79 30.18 30.16      
Oct 19 12:53 SSW 6 10 Partly Cloudy SCT025 75 63     66%   75 30.22 30.2      
Oct 19 11:53 SE 7 10 Clear CLR 72 61     68%   72 30.25 30.24      
Oct 19 11:35 7 10 Mostly Clear FEW017 72 62     71%   72 30.26        
Oct 19 10:53 5 10 Cloudy OVC015 68 59     73%     30.28 30.26      
Oct 19 10:43 Calm 10 Cloudy OVC015 68 59     73%     30.28        
Oct 19 09:53 3 10 Cloudy OVC011 63 56     78%     30.28 30.27      
Oct 19 08:53 3 10 Cloudy OVC011 60 54     80%     30.29 30.28      
Oct 19 07:53 3 10 Cloudy OVC011 58 52     81%     30.27 30.26      
Oct 19 07:01 ENE 5 10 Mostly Cloudy BKN012 57 51     81%     30.27        
Oct 19 06:53 3 10 Partly Cloudy SCT011 56 51     84%     30.27 30.26      
Oct 19 05:53 3 10 Clear CLR 56 51     84%     30.27 30.26      
Oct 19 04:53 3 10 Clear CLR 56 51     84%     30.26 30.25      
Oct 19 03:53 Calm 10 Clear CLR 56 51     84%     30.27 30.25      
Oct 19 02:53 Calm 10 Clear   56 51     84%     30.27 30.26      
Oct 19 01:53 E 3 10 Clear CLR 57 51     81%     30.29 30.28      
Oct 19 00:53 ENE 5 10 Clear CLR 59 51     75%     30.29 30.28      
Oct 18 23:53 Calm 10 Clear CLR 57 50     77%     30.3 30.29      
Oct 18 22:53 Calm 10 Clear CLR 59 50     72%     30.31 30.29      
Oct 18 21:53 Calm 10 Clear CLR 59 49     69%     30.31 30.3      
Oct 18 20:53 Calm 10 Clear CLR 59 51     75%     30.31 30.3      
Oct 18 19:53 Calm 10 Clear CLR 61 50     67%     30.31 30.3      
Oct 18 18:53 NNW 3 10 Clear CLR 63 50     63%     30.3 30.29      
Oct 18 17:53 NE 3 10 Clear CLR 70 45     41%     30.29 30.28      
Oct 18 16:53 Calm 10 Clear CLR 74 43     33%   73 30.29 30.27      
Oct 18 15:53 7 10 Clear CLR 75 42     31%   74 30.29 30.27      
Oct 18 14:53 N 5 10 Clear CLR 75 45     34%   74 30.28 30.27      
Oct 18 13:53 6 10 Clear CLR 73 44     35%   72 30.3 30.28      
Oct 18 12:53 Calm 10 Clear CLR 71 46     41%   70 30.33 30.31      
Oct 18 11:53 Calm 9 Clear CLR 69 45     42%     30.35 30.34      
Oct 18 10:53 NE 5 10 Clear CLR 66 45     47%     30.37 30.36      
Oct 18 09:53 3 10 Clear CLR 63 45     52%     30.38 30.37      
Oct 18 08:53 5 10 Clear CLR 60 43     53%     30.37 30.36      
Oct 18 07:53 5 10 Clear CLR 57 44     62%     30.36 30.35      
Oct 18 06:53 Calm 10 Clear CLR 56 44     64%     30.33 30.33      
Oct 18 05:53 5 10 Clear CLR 56 45     67%     30.32 30.32      
Oct 18 04:53 3 10 Clear CLR 58 46     65%     30.32 30.3      
Oct 18 03:53 3 10 Clear CLR 58 47     67%     30.31 30.3      
Oct 18 02:53 N 3 10 Clear CLR 59 47     64%     30.32 30.31      
Oct 18 01:53 N 6 10 Clear CLR 60 47     62%     30.32 30.31      
Oct 18 00:53 Calm 10 Clear CLR 60 48     64%     30.31 30.3      
Oct 17 23:53 5 10 Clear CLR 61 48     62%     30.31 30.3      
Oct 17 22:53 N 5 10 Clear CLR 62 48     60%     30.31 30.29      
Oct 17 21:53 N 5 10 Clear CLR 62 49     62%     30.31 30.29      
Oct 17 20:53 Calm 10 Clear   62 51     67%     30.3 30.28      
Oct 17 19:53 N 6 10 Cloudy BKN070 OVC080 64 51     63%     30.3 30.28      
Oct 17 18:53 N 7 10 Cloudy OVC070 65 52     63%     30.29 30.27      
Oct 17 17:53 N 6 10 Cloudy BKN070 OVC095 66 54     65%     30.26 30.25      
Oct 17 16:53 N 5 10 Cloudy OVC060 67 56     68%     30.25 30.24      
Oct 17 15:53 NNW 5 10 Cloudy OVC065 70 57     63%     30.25 30.23      
Oct 17 14:53 N 5 10 Cloudy OVC065 69 58     68%     30.24 30.23      
Oct 17 13:53 N 5 10 Cloudy OVC070 68 59     73%     30.25 30.23      
Oct 17 12:53 N 6 10 Cloudy OVC070 67 59     76%     30.26 30.24     0
Oct 17 11:53 3 10 Cloudy FEW014 OVC070 66 60     81%     30.28 30.26      
Oct 17 11:07 3 10 Cloudy SCT012 OVC065 65 60     84%     30.29        
Oct 17 10:53 N 5 10 Cloudy BKN011 OVC070 65 60     84%     30.28 30.27      
Oct 17 10:44 5 10 Cloudy BKN011 OVC070 65 61     87%     30.28        
Oct 17 10:06 NNW 5 10 Cloudy OVC009 64 61     90%     30.28        
Oct 17 09:53 N 5 10 Cloudy OVC010 64 61     90%     30.27 30.26   0  
Oct 17 09:03 Calm 10 Cloudy BKN007 OVC055 63 61     93%     30.25        
Oct 17 08:53 Calm 10 Cloudy SCT006 OVC060 63 61     93%     30.26 30.24      
Oct 17 08:17 3 10 Cloudy SCT009 OVC060 62 60     93%     30.24        
Oct 17 08:02 3 10 Mostly Cloudy BKN009 BKN065 62 59     90%     30.24        
Oct 17 07:53 3 10 Mostly Cloudy SCT009 BKN070 BKN100 61 59     93%     30.24 30.23 0    
Oct 17 07:42 N 3 10 Mostly Cloudy FEW008 BKN070 61 59     93%     30.23   0    
Oct 17 06:53 N 5 10 Light Rain OVC009 61 60     97%     30.23 30.22 0   0
Oct 17 06:41 N 6 9 Light Rain BKN008 OVC042 61 60     97%     30.23   0    
Oct 17 06:19 N 6 3 Rain and Fog/Mist SCT009 BKN050 OVC070 62 60     93%     30.22   0    
Oct 17 05:53 NNW 6 10 Light Rain SCT060 BKN080 OVC100 62 59     90%     30.22 30.21 0    
Oct 17 04:53 3 10 Cloudy BKN065 OVC110 63 60     90%     30.19 30.17      
Oct 17 03:53 N 5 10 Mostly Cloudy FEW007 BKN060 BKN090 63 60     90%     30.19 30.17 0 0  
Oct 17 03:46   10 Cloudy SCT007 OVC055 63 60     90%     30.18   0    
Oct 17 03:29 NNW 8 10 Cloudy BKN007 OVC060 62 60     93%     30.18   0    
Oct 17 02:53 NNW 7 10 Light Rain OVC006 63 61     93%     30.17 30.16 0    
Oct 17 02:44 N 8 8 Light Rain OVC006 63 61     93%     30.18   0    
Oct 17 02:15 6 10 Cloudy BKN007 BKN050 OVC075 64 62     93%     30.17        
Oct 17 02:05 NW 7 10 Cloudy SCT008 BKN055 OVC075 64 62     93%     30.17        
Oct 17 01:53 NNW 7 10 Cloudy BKN055 OVC070 65 62     90%     30.17 30.15      
Oct 17 00:53 NNW 3 10 Partly Cloudy SCT110 65 62     90%     30.15 30.14      
Oct 16 22:53 Calm 10 Clear CLR 65 62     90%     30.16 30.15      
Oct 16 21:53 3 10 Clear CLR 65 62     90%     30.16 30.15      
Oct 16 20:53 5 10 Clear CLR 66 62     87%     30.16 30.15      
Oct 16 20:24 ENE 6 10 Partly Cloudy SCT032 65 61     87%     30.16        
Oct 16 19:53 5 10 Cloudy BKN021 OVC027 66 61     84%     30.17 30.16      
Oct 16 19:18 N 6 10 Clear   65 62     90%     30.17        
Oct 16 19:01 N 5 10 Clear   65 61     87%     30.16        
Oct 16 18:53 N 6 10 Clear   65 61     87%     30.16 30.15      
Oct 16 18:02 NW 11 9 Cloudy BKN009 OVC019 66 62     87%     30.15        
Oct 16 17:53 NW 11 10 Cloudy SCT011 OVC019 67 63     87%     30.14 30.12      
Oct 16 17:11 NW 10 10 Mostly Cloudy BKN021 BKN090 73 65     76%   74 30.12        
Oct 16 16:53 3 10 Mostly Cloudy SCT021 BKN090 74 65     74%   74 30.11 30.09      
Oct 16 15:53 NNW 5 10 Cloudy OVC018 74 65     74%   74 30.1 30.08      
Oct 16 14:53 NNW 3 9 Cloudy OVC018 74 66     76%   75 30.11 30.09      
Oct 16 13:53 3 10 Cloudy OVC016 74 66     76%   75 30.12 30.1      
Oct 16 12:53 3 10 Cloudy OVC017 73 64     73%   73 30.13 30.11      
May 15 03:53 Calm 9 Clear CLR 71 67     87%   72 29.98 29.96      
May 14 10:53 6 10 Clear CLR 89 64     44%   90 30.05 30.03      
May 14 04:53 Calm 7 Clear   67 65     93%     30.02 30      
May 13 22:53 Calm 8 Clear CLR 73 68     84%   74 30.06 30.03      
May 13 08:53 Calm 9 Clear CLR 80 62     54%   81 30.16 30.14      
May 12 02:53 Calm 8 Clear CLR 65 62     90%     30.09 30.07      
May 11 16:53 WSW 5 10 Clear CLR 87 56     35%   86 30.06 30.03      
Jun 12 05:53 Calm 10 Mostly Clear FEW023 72 71     97%   73 30.14 30.12      
Jun 11 18:53 SSE 5 10 Clear CLR 86 69     57%   90 30.08 30.05      
Jun 11 11:53 SE 6 10 Clear CLR 85 66     53%   87 30.15 30.13      
Jun 11 10:53 ESE 7 10 Mostly Clear FEW031 83 71     67%   88 30.16 30.14      
Jun 11 01:53 Calm 10 Clear   71 65     81%   72 30.08 30.06      
Jun 10 03:53 Calm 10 Mostly Cloudy BKN060 BKN075 66 65     96%     30.01 29.98      
Jun 09 21:53 Calm 10 Clear CLR 70 66     87%     29.98 29.96      
Jun 08 19:53 Calm 10 Clear CLR 72 64     76%   72 29.87 29.85      
Jun 07 07:53 N 6 10 Clear CLR 70 60     71%     29.82 29.8      
Jun 06 08:20 NNW 5 3 Light Rain and Fog/Mist SCT006 OVC017 71 71     100%   73 29.81   0    
Jun 06 07:28 Calm 5 Light Rain and Fog/Mist BKN013 BKN017 OVC043 71 71     100%   73 29.81   0    
Jun 06 06:10 NW 6 1.75 Rain and Fog/Mist BKN013 BKN020 OVC024 70 70     100%     29.81   0    
Jun 06 05:05 Calm 3 Rain and Fog/Mist FEW031 BKN042 OVC070 71 71     100%   73 29.79   0    
Jun 05 21:53 Calm 10 Clear   72 72     100%   74 29.83 29.8   0